Location: Unspecified
(64.9000°N, 0.0000°E)
Time: 19:33:10
(UTC+00:00)

Altair - Pass Details

Date: 21 June 2019
Orbit: 1501 x 1683 km, 47.2° (Epoch: 18 July)

Event Time Altitude Azimuth Distance (km) Brightness Sun altitude
Rises 22:59:38 0° 246° (WSW) 4,784 10.0 -0.8°
Reaches altitude 10° 23:03:15 10° 236° (SW) 3,827 9.4 -0.9°
Maximum altitude 23:10:58 28° 183° (S) 2,738 8.3 -1.1°
Drops below altitude 10° 23:18:53 10° 130° (SE) 3,924 9.2 -1.3°
Sets 23:22:39 0° 120° (ESE) 4,925 9.8 -1.3°
